This demonstration page uses our WeatherBlox Daily Observations layout. Learn more.

Left ArrowRight Arrow

40.92945, -100.16068

Hourly Observations for November 16, 2021

Temp ( °F °C ) Dew Point ( °F °C ) Humidity (%) Winds ( mph kmh ) Pressure ( in mb ) Visibility ( mi km ) Precip ( " mm )
12:15 am 00:15 Clear 45 7 32 0.2 62 62 Calm 29.86 1011 10 16 0.00 0.00
12:35 am 00:35 Clear 39 3.9 32 0.1 77 77 Calm 29.88 1012 7 11 0.00 0.00
12:55 am 00:55 Hazy 43 6.1 33 0.3 67 67 Calm 29.85 1011 3 4 0.00 0.00
1:15 am 01:15 Clear 49 9.4 34 1 56 56 SW 6 9 29.81 1009 10 16 0.00 0.00
1:35 am 01:35 Clear 50 9.8 33 0.4 52 52 Calm 29.79 1009 10 16 0.00 0.00
1:55 am 01:55 Clear 52 11 32 0.1 47 47 SSW 5 7 29.77 1008 10 16 0.00 0.00
2:15 am 02:15 Clear 51 10.6 32 0.1 49 49 SSW 6 9 29.77 1008 10 16 0.00 0.00
2:35 am 02:35 Clear 51 10.4 32 0 49 49 Calm 29.77 1008 10 16 0.00 0.00
2:55 am 02:55 Clear 51 10.5 32 -0.1 48 48 Calm 29.77 1008 10 16 0.00 0.00
3:15 am 03:15 Clear 50 9.8 32 0 51 51 Calm 29.75 1008 10 16 0.00 0.00
3:35 am 03:35 Clear 50 10 32 0 50 50 Calm 29.74 1007 10 16 0.00 0.00
3:55 am 03:55 Clear 48 8.9 33 0.6 56 56 Calm 29.74 1007 10 16 0.00 0.00
4:15 am 04:15 Hazy 52 10.9 32 0.1 48 48 Calm 29.72 1007 5 8 0.00 0.00
4:35 am 04:35 Clear 44 6.8 34 0.9 66 66 NNW 3 6 29.76 1008 10 16 0.00 0.00
4:55 am 04:55 Clear 44 6.9 33 0.5 64 64 Calm 29.74 1007 10 16 0.00 0.00
5:15 am 05:15 Hazy 44 6.7 33 0.5 65 65 E 3 6 29.72 1006 5 8 0.00 0.00
5:35 am 05:35 Clear 50 10.1 32 0 50 50 Calm 29.69 1005 7 11 0.00 0.00
5:55 am 05:55 Hazy 50 10.2 32 0 49 49 Calm 29.68 1005 5 8 0.00 0.00
6:15 am 06:15 Clear 49 9.2 32 0 53 53 N 6 9 29.70 1006 10 16 0.00 0.00
6:35 am 06:35 Clear 51 10.4 32 0.1 49 49 Calm 29.68 1005 10 16 0.00 0.00
6:55 am 06:55 Clear 54 12.4 32 0.1 43 43 SW 10 17 29.64 1004 10 16 0.00 0.00
7:15 am 07:15 Clear 48 9.1 32 0.1 54 54 WSW 5 7 29.68 1005 10 16 0.00 0.00
7:35 am 07:35 Sunny 44 6.7 33 0.5 65 65 WNW 8 13 29.70 1006 10 16 0.00 0.00
7:55 am 07:55 Sunny 46 7.9 33 0.7 61 61 WSW 6 9 29.69 1005 10 16 0.00 0.00
8:15 am 08:15 Sunny 47 8.3 33 0.5 58 58 SW 8 13 29.69 1005 10 16 0.00 0.00
8:35 am 08:35 Sunny 48 8.9 34 1.1 58 58 SW 7 11 29.68 1005 10 16 0.00 0.00
8:55 am 08:55 Sunny 49 9.5 35 1.5 58 58 SSW 6 9 29.68 1005 10 16 0.00 0.00
9:15 am 09:15 Sunny 52 11 35 1.4 52 52 SSW 3 6 29.65 1004 10 16 0.00 0.00
9:35 am 09:35 Sunny 53 11.9 35 1.9 51 51 SSW 5 7 29.63 1004 10 16 0.00 0.00
9:55 am 09:55 Sunny 55 12.5 37 2.5 51 51 SW 3 6 29.62 1003 10 16 0.00 0.00
10:15 am 10:15 Sunny 56 13.1 37 2.9 50 50 Calm 29.61 1003 10 16 0.00 0.00
10:35 am 10:35 Sunny 56 13.4 36 2.1 47 47 WNW 6 9 29.61 1003 10 16 0.00 0.00
10:55 am 10:55 Sunny 56 13.6 36 2.4 47 47 WNW 5 7 29.63 1003 10 16 0.00 0.00
11:15 am 11:15 Sunny 57 14 38 3.3 49 49 W 3 6 29.63 1003 10 16 0.00 0.00
11:35 am 11:35 Sunny 59 15.1 38 3.5 46 46 Calm 29.60 1002 10 16 0.00 0.00
11:55 am 11:55 Sunny 60 15.5 38 3.1 44 44 W 5 7 29.59 1002 10 16 0.00 0.00
12:15 pm 12:15 Sunny 60 15.7 37 2.6 42 42 Calm 29.57 1001 10 16 0.00 0.00
12:35 pm 12:35 Sunny 61 16.2 38 3.3 42 42 Calm 29.57 1001 10 16 0.00 0.00
12:55 pm 12:55 Sunny 63 17 37 2.7 39 39 Calm 29.55 1001 10 16 0.00 0.00
1:15 pm 13:15 Sunny 63 17.2 38 3.4 40 40 Calm 29.54 1000 10 16 0.00 0.00
1:35 pm 13:35 Sunny 64 17.6 39 3.7 40 40 Calm 29.54 1000 10 16 0.00 0.00
1:55 pm 13:55 Sunny 64 17.7 40 4.3 41 41 Calm 29.53 1000 10 16 0.00 0.00
2:15 pm 14:15 Sunny 64 17.5 40 4.6 43 43 N 3 6 29.52 1000 10 16 0.00 0.00
2:35 pm 14:35 Sunny 63 17.3 40 4.5 43 43 NNW 3 6 29.53 1000 10 16 0.00 0.00
2:55 pm 14:55 Sunny 62 16.9 40 4.4 44 44 Calm 29.53 1000 10 16 0.00 0.00
3:15 pm 15:15 Sunny 62 16.5 41 5.2 47 47 N 3 6 29.53 1000 10 16 0.00 0.00
3:35 pm 15:35 Sunny 61 16.2 41 4.8 47 47 Calm 29.55 1001 7 11 0.00 0.00
3:55 pm 15:55 Sunny 61 16.2 40 4.3 45 45 NNW 5 7 29.55 1001 7 11 0.00 0.00
4:15 pm 16:15 Sunny 60 15.4 41 4.8 49 49 Calm 29.55 1001 10 16 0.00 0.00
4:35 pm 16:35 Sunny 57 13.7 42 5.4 58 58 NNW 3 6 29.58 1002 10 16 0.00 0.00
4:55 pm 16:55 Sunny 56 13.6 40 4.6 55 55 Calm 29.58 1002 7 11 0.00 0.00
5:15 pm 17:15 Sunny 53 11.7 41 5.2 65 65 WNW 3 6 29.61 1003 7 11 0.00 0.00
5:35 pm 17:35 Hazy 52 11.2 41 4.9 65 65 WNW 5 7 29.61 1003 5 8 0.00 0.00
5:55 pm 17:55 Hazy 49 9.2 41 4.8 74 74 NW 6 9 29.64 1004 4 6 0.00 0.00
6:15 pm 18:15 Hazy 49 9.4 40 4.7 73 73 WNW 7 11 29.64 1004 5 8 0.00 0.00
6:35 pm 18:35 Clear 49 9.7 40 4.5 70 70 W 9 15 29.64 1004 10 16 0.00 0.00
6:55 pm 18:55 Clear 50 10.1 40 4.5 68 68 WNW 10 17 29.65 1004 10 16 0.00 0.00
7:15 pm 19:15 Clear 53 11.5 39 4 60 60 NW 9 15 29.65 1004 10 16 0.00 0.00
7:35 pm 19:35 Clear 58 14.7 35 1.8 42 42 NW 12 19 29.62 1003 10 16 0.00 0.00
7:55 pm 19:55 Clear 59 14.9 35 1.7 41 41 NNE 16 26 29.66 1004 10 16 0.00 0.00
8:15 pm 20:15 Clear 56 13.1 33 0.6 43 43 NNE 20 31 29.69 1006 10 16 0.00 0.00
8:35 pm 20:35 Clear 54 12.1 33 0.5 45 45 NNE 14 22 29.72 1007 10 16 0.00 0.00
8:55 pm 20:55 Clear 53 11.5 33 0.5 47 47 N 15 24 29.76 1008 10 16 0.00 0.00
9:15 pm 21:15 Clear 52 11 33 0.6 49 49 NNE 14 22 29.77 1008 10 16 0.00 0.00
9:35 pm 21:35 Clear 51 10.6 33 0.6 50 50 N 15 24 29.80 1009 10 16 0.00 0.00
9:55 pm 21:55 Clear 51 10.4 29 -1.7 43 43 N 13 20 29.83 1010 10 16 0.00 0.00
10:15 pm 22:15 Clear 49 9.6 24 -4.2 38 38 N 14 22 29.85 1011 10 16 0.00 0.00
10:35 pm 22:35 Clear 47 8.5 22 -5.6 37 37 N 14 22 29.88 1012 10 16 0.00 0.00
10:55 pm 22:55 Clear 47 8.3 21 -6.3 35 35 N 18 30 29.90 1012 10 16 0.00 0.00
11:15 pm 23:15 Clear 47 8.1 17 -8.2 31 31 N 16 26 29.91 1013 10 16 0.00 0.00
11:35 pm 23:35 Clear 46 7.7 17 -8.1 32 32 N 16 26 29.92 1013 10 16 0.00 0.00
11:55 pm 23:55 Clear 45 7.3 17 -8.1 33 33 N 16 26 29.94 1014 10 16 0.00 0.00

Powered by AerisWeather